This is the latest recevied weather packets stored in our database for station/object E24OWX-1. If no packets are shown the sender has not sent any weather packets the latest 10 day(s).
| Time | Temp. | Humidity | Pressure | Rain* | Wind** | Luminosity | Snow |
|---|---|---|---|---|---|---|---|
| 1777404939 | 27.78° C | 99% | 1006 hPa | - | - | 0 W/m² | - |
| 1777404017 | 27.78° C | 99% | 1006 hPa | - | - | 0 W/m² | - |
| 1777403095 | 27.78° C | 99% | 1006 hPa | - | - | 0 W/m² | - |
| 1777402173 | 27.78° C | 99% | 1006 hPa | - | - | 0 W/m² | - |
| 1777401251 | 27.22° C | 99% | 1006 hPa | - | - | 0 W/m² | - |
| 1777400329 | 26.67° C | 99% | 1006 hPa | - | - | 0 W/m² | - |
| 1777399407 | 26.67° C | 99% | 1006 hPa | - | - | 0 W/m² | - |
| 1777398485 | 27.22° C | 99% | 1006 hPa | - | - | 0 W/m² | - |
| 1777397563 | 27.22° C | 99% | 1006 hPa | - | - | 0 W/m² | - |
| 1777396641 | 25.56° C | 99% | 1007 hPa | - | - | 0 W/m² | - |
| 1777395719 | 26.11° C | 99% | 1007 hPa | - | - | 0 W/m² | - |
| 1777394782 | 26.11° C | 99% | 1008 hPa | - | - | 0 W/m² | - |
| 1777394006 | 28.33° C | 99% | 1009 hPa | - | - | 0 W/m² | - |
| 1777393084 | 32.22° C | 78% | 1006 hPa | - | - | 0 W/m² | - |
| 1777392163 | 35° C | 94% | 1006 hPa | - | - | 0 W/m² | - |
| 1777391240 | 35° C | 91% | 1006 hPa | - | - | 0 W/m² | - |
| 1777390318 | 35° C | 88% | 1006 hPa | - | - | 0 W/m² | - |
| 1777389397 | 35.56° C | 82% | 1006 hPa | - | - | 0 W/m² | - |
| 1777388475 | 35° C | 85% | 1005 hPa | - | - | 0 W/m² | - |
| 1777387552 | 35° C | 88% | 1005 hPa | - | - | 0 W/m² | - |
| 1777386630 | 35° C | 78% | 1005 hPa | - | - | 0 W/m² | - |
| 1777385708 | 35° C | 76% | 1004 hPa | - | - | 0 W/m² | - |
| 1777384786 | 34.44° C | 79% | 1004 hPa | - | - | 0 W/m² | - |
| 1777383865 | 35° C | 78% | 1003 hPa | - | - | 0 W/m² | - |
| 1777382943 | 35° C | 74% | 1003 hPa | - | - | 0 W/m² | - |
* Rain since midnight (hover to see other rain measurements)
** Current wind speed in m/s (hover to see current wind gust speed)